Hebron, NE

3:14 PM CST on December 09, 2019 (GMT -0600)
Hebron Municipal

Weather History for KHJH - September, 2019

Change the Weather History Date:

Tuesday, September 17, 2019

  Actual Average Record
Temperature  
Mean Temperature 82 °F -  
Max Temperature 92 °F 75 °F 98 °F (1952)
Min Temperature 72 °F 52 °F 36 °F (1980)
Cooling Degree Days 16    
Growing Degree Days 32 (Base 50)    
Moisture  
Dew Point 65 °F    
Average Humidity 60    
Maximum Humidity 85    
Minimum Humidity 38    
Precipitation  
Precipitation 0.00 in - - ()
Sea Level Pressure  
Sea Level Pressure 29.93 in    
Wind  
Wind Speed 12 mph (South)    
Max Wind Speed 22 mph    
Max Gust Speed 30 mph    
Visibility 10 miles    
Events      
Averages and records for this station are not official NWS values.
T = Trace of Precipitation, MM = Missing Value Source: NWS Daily Summary

Daily Weather History Graph

Daily Weather History Graph

Search for Another Location

Airport or City:

Astronomy

Sep. 17, 2019 Rise Set
Actual Time 7:12 AM CDT 7:36 PM CDT
Civil Twilight 6:45 AM CDT 8:03 PM CDT
Nautical Twilight 6:13 AM CDT 8:35 PM CDT
Astronomical Twilight 5:41 AM CDT 9:07 PM CDT
Moon 9:39 PM CDT (9/17) 10:18 AM CDT (9/17)
Length of Visible Light 13h 17m
Length of Day
12h 23m
Waning Gibbous, 89% of the Moon is Illuminated
Sep 17
Waning Gibbous
Sep 21
Last Quarter
Sep 28
New
Oct 5
First Quarter
Oct 13
Full

Hourly Weather History & Observations

Time (CDT) Temp. Heat Index Dew Point Humidity Pressure Visibility Wind Dir Wind Speed Gust Speed Precip Events Conditions
12:15 AM 78.3 °F - 66.6 °F 67% 29.97 in 10.0 mi South 12.7 mph 17.3 mph N/A   Clear
12:35 AM 78.1 °F - 66.7 °F 68% 29.97 in 10.0 mi South 12.7 mph 23.0 mph N/A   Clear
12:55 AM 77.5 °F - 66.7 °F 69% 29.97 in 10.0 mi South 11.5 mph 17.3 mph N/A   Clear
1:15 AM 77.0 °F - 67.1 °F 71% 29.97 in 10.0 mi South 10.4 mph - N/A   Clear
1:35 AM 76.6 °F - 67.1 °F 72% 29.97 in 10.0 mi South 11.5 mph 16.1 mph N/A   Clear
1:55 AM 76.6 °F - 67.1 °F 72% 29.97 in 10.0 mi South 10.4 mph 17.3 mph N/A   Clear
2:15 AM 76.1 °F - 67.1 °F 74% 29.97 in 10.0 mi South 9.2 mph - N/A   Clear
2:35 AM 75.4 °F - 67.1 °F 75% 29.97 in 10.0 mi South 10.4 mph - N/A   Clear
2:55 AM 75.0 °F - 67.1 °F 76% 29.97 in 10.0 mi South 8.1 mph 16.1 mph N/A   Clear
3:15 AM 74.7 °F - 67.3 °F 78% 29.96 in 10.0 mi South 10.4 mph 16.1 mph N/A   Clear
3:35 AM 74.5 °F - 67.5 °F 79% 29.96 in 10.0 mi South 10.4 mph - N/A   Clear
3:55 AM 74.3 °F - 67.3 °F 79% 29.96 in 10.0 mi South 9.2 mph 16.1 mph N/A   Clear
4:15 AM 74.3 °F - 67.3 °F 79% 29.96 in 10.0 mi South 8.1 mph - N/A   Clear
4:35 AM 74.3 °F - 67.1 °F 78% 29.96 in 10.0 mi South 8.1 mph - N/A   Clear
4:55 AM 73.9 °F - 67.1 °F 79% 29.96 in 10.0 mi South 9.2 mph - N/A   Clear
5:15 AM 73.8 °F - 67.1 °F 80% 29.96 in 10.0 mi South 9.2 mph - N/A   Clear
5:35 AM 73.4 °F - 67.1 °F 81% 29.96 in 10.0 mi South 8.1 mph - N/A   Clear
5:55 AM 73.0 °F - 67.1 °F 82% 29.96 in 10.0 mi South 9.2 mph - N/A   Clear
6:15 AM 72.7 °F - 67.1 °F 83% 29.96 in 10.0 mi South 8.1 mph - N/A   Clear
6:35 AM 72.1 °F - 66.9 °F 84% 29.96 in 10.0 mi SSE 6.9 mph - N/A   Clear
6:55 AM 72.0 °F - 67.1 °F 85% 29.97 in 10.0 mi SSE 8.1 mph - N/A   Clear
7:15 AM 72.5 °F - 66.9 °F 83% 29.97 in 10.0 mi South 8.1 mph - N/A   Clear
7:35 AM 72.5 °F - 66.7 °F 82% 29.98 in 10.0 mi South 8.1 mph - N/A   Clear
7:55 AM 72.5 °F - 66.7 °F 82% 29.98 in 10.0 mi South 8.1 mph - N/A   Clear
8:15 AM 72.7 °F - 66.7 °F 82% 29.98 in 10.0 mi South 8.1 mph - N/A   Clear
8:35 AM 73.8 °F - 67.1 °F 80% 29.98 in 10.0 mi SSE 9.2 mph - N/A   Clear
8:55 AM 75.4 °F - 67.1 °F 75% 29.98 in 10.0 mi South 9.2 mph 16.1 mph N/A   Clear
9:15 AM 77.4 °F - 66.9 °F 70% 29.97 in 10.0 mi South 11.5 mph 18.4 mph N/A   Clear
9:35 AM 78.8 °F - 66.7 °F 66% 29.97 in 10.0 mi South 13.8 mph 19.6 mph N/A   Clear
9:55 AM 79.9 °F - 66.7 °F 64% 29.97 in 10.0 mi South 12.7 mph 19.6 mph N/A   Clear
10:15 AM 81.7 °F 84.2 °F 66.9 °F 61% 29.97 in 10.0 mi South 12.7 mph 16.1 mph N/A   Clear
10:35 AM 83.1 °F 85.7 °F 66.9 °F 58% 29.97 in 10.0 mi South 11.5 mph 20.7 mph N/A   Clear
10:55 AM 84.4 °F 86.8 °F 66.4 °F 55% 29.97 in 10.0 mi South 17.3 mph 21.9 mph N/A   Clear
11:15 AM 85.8 °F 88.2 °F 66.4 °F 52% 29.96 in 10.0 mi South 16.1 mph 23.0 mph N/A   Clear
11:35 AM 86.5 °F 88.4 °F 65.3 °F 49% 29.96 in 10.0 mi SSW 16.1 mph 27.6 mph N/A   Clear
11:55 AM 88.2 °F 90.6 °F 66.4 °F 48% 29.95 in 10.0 mi South 19.6 mph 27.6 mph N/A   Clear
12:15 PM 88.3 °F 90.5 °F 65.5 °F 47% 29.95 in 10.0 mi South 17.3 mph 24.2 mph N/A   Clear
12:55 PM 90.5 °F 92.5 °F 65.3 °F 43% 29.94 in 10.0 mi South 17.3 mph 24.2 mph N/A   Clear
1:15 PM 90.3 °F 91.9 °F 64.2 °F 42% 29.93 in 10.0 mi SSW 18.4 mph 27.6 mph N/A   Clear
1:35 PM 90.5 °F 92.2 °F 64.4 °F 42% 29.93 in 10.0 mi South 17.3 mph 28.8 mph N/A   Clear
1:55 PM 91.2 °F 92.9 °F 64.6 °F 41% 29.92 in 10.0 mi South 16.1 mph 27.6 mph N/A   Clear
2:15 PM 91.8 °F 93.4 °F 64.6 °F 40% 29.91 in 10.0 mi South 21.9 mph 28.8 mph N/A   Clear
2:35 PM 91.4 °F 92.8 °F 64.0 °F 40% 29.90 in 10.0 mi South 13.8 mph 25.3 mph N/A   Scattered Clouds
2:55 PM 91.0 °F 92.2 °F 63.3 °F 40% 29.90 in 10.0 mi South 19.6 mph 29.9 mph N/A   Scattered Clouds
3:15 PM 91.9 °F 92.9 °F 63.0 °F 38% 29.89 in 10.0 mi South 18.4 mph 23.0 mph N/A   Scattered Clouds
3:35 PM 91.8 °F 93.4 °F 64.0 °F 40% 29.89 in 10.0 mi South 16.1 mph 27.6 mph N/A   Scattered Clouds
3:55 PM 91.8 °F 93.0 °F 63.3 °F 39% 29.88 in 10.0 mi South 17.3 mph 29.9 mph N/A   Scattered Clouds
4:15 PM 91.6 °F 92.7 °F 63.1 °F 39% 29.87 in 10.0 mi South 18.4 mph 28.8 mph N/A   Clear
4:35 PM 90.9 °F 91.6 °F 62.6 °F 39% 29.87 in 10.0 mi South 20.7 mph 29.9 mph N/A   Clear
4:55 PM 90.0 °F 91.3 °F 63.9 °F 42% 29.86 in 10.0 mi South 18.4 mph 25.3 mph N/A   Clear
5:15 PM 90.1 °F 91.2 °F 63.3 °F 41% 29.86 in 10.0 mi South 19.6 mph 27.6 mph N/A   Clear
5:35 PM 90.0 °F 90.6 °F 62.6 °F 40% 29.86 in 10.0 mi South 19.6 mph 28.8 mph N/A   Clear
5:55 PM 89.8 °F 90.4 °F 62.2 °F 40% 29.86 in 10.0 mi South 15.0 mph 26.5 mph N/A   Clear
6:15 PM 88.7 °F 89.1 °F 62.2 °F 41% 29.86 in 10.0 mi South 13.8 mph 26.5 mph N/A   Clear
6:35 PM 87.8 °F 88.5 °F 62.6 °F 43% 29.86 in 10.0 mi South 13.8 mph 23.0 mph N/A   Clear
6:55 PM 87.3 °F 88.0 °F 63.0 °F 44% 29.86 in 10.0 mi South 12.7 mph 25.3 mph N/A   Clear
7:15 PM 86.2 °F 87.3 °F 63.5 °F 47% 29.85 in 10.0 mi SSE 12.7 mph 19.6 mph N/A   Clear
7:35 PM 85.1 °F 86.1 °F 63.1 °F 48% 29.86 in 10.0 mi South 13.8 mph 18.4 mph N/A   Clear
7:55 PM 84.0 °F 84.9 °F 63.1 °F 49% 29.87 in 10.0 mi South 9.2 mph - N/A   Clear
8:15 PM 82.9 °F 84.0 °F 63.3 °F 51% 29.87 in 10.0 mi South 12.7 mph 17.3 mph N/A   Clear
8:35 PM 82.4 °F 83.4 °F 62.8 °F 51% 29.87 in 10.0 mi SSE 9.2 mph 18.4 mph N/A   Clear
8:55 PM 81.3 °F 82.7 °F 63.5 °F 55% 29.88 in 10.0 mi SSE 9.2 mph 16.1 mph N/A   Clear
9:15 PM 80.6 °F 82.0 °F 63.7 °F 56% 29.88 in 10.0 mi SSE 9.2 mph - N/A   Clear
9:35 PM 79.9 °F - 64.4 °F 59% 29.88 in 10.0 mi SSE 9.2 mph - N/A   Clear
9:55 PM 79.9 °F - 64.8 °F 60% 29.89 in 10.0 mi South 12.7 mph 18.4 mph N/A   Clear
10:15 PM 80.1 °F 81.9 °F 64.9 °F 60% 29.88 in 10.0 mi South 11.5 mph 20.7 mph N/A   Clear
10:35 PM 79.7 °F - 65.1 °F 61% 29.89 in 10.0 mi South 11.5 mph 16.1 mph N/A   Clear
10:55 PM 79.9 °F - 65.3 °F 61% 29.88 in 10.0 mi South 9.2 mph 19.6 mph N/A   Clear
11:15 PM 79.2 °F - 65.3 °F 62% 29.88 in 10.0 mi SSE 11.5 mph 19.6 mph N/A   Clear
11:35 PM 78.8 °F - 65.3 °F 63% 29.89 in 10.0 mi SSE 10.4 mph 19.6 mph N/A   Clear
11:55 PM 78.3 °F - 65.3 °F 64% 29.89 in 10.0 mi South 10.4 mph 17.3 mph N/A   Clear